AFL1700 UUEE-UHWW

Flight info

Callsign AFL1700
Flight time N/A
Altitude 35000
Route RILPO3J RILPO T753 TUNOB T791 MOVUN P149 SONIB N174 KEDOR T541 MOKIT/K0902F370 T541 LEBNA L168 IVADA DCT HAB/K0911F380 DCT ARDEL B355 BG G714 DAGES DAGES2N
Aircraft B77W/H-SDE1E2E3FGHIJ2J3J4J5M1RWXY/LB1D1

Departure

Time 2026-05-01 13:20
Airport Sheremetyevo International Airport (UUEE)

Arrival

Time N/A
Airport Vladivostok International Airport (UHWW)
Time Latitude Longitude Altitude Speed Heading
2026-05-01 12:19 55.98019 37.41844 649 ft 0 kts 255°
2026-05-01 13:07 55.98066 37.41959 655 ft 0 kts 165°
2026-05-01 13:12 55.98065 37.41959 644 ft 1 kts 165°
2026-05-01 13:12 55.98036 37.41973 647 ft 8 kts 165°
2026-05-01 13:12 55.97973 37.42003 651 ft 9 kts 165°
2026-05-01 13:12 55.97910 37.42033 648 ft 9 kts 165°
2026-05-01 13:13 55.97846 37.42064 646 ft 9 kts 165°
2026-05-01 13:13 55.97783 37.42094 646 ft 9 kts 165°
2026-05-01 13:13 55.97719 37.42125 648 ft 9 kts 164°
2026-05-01 13:13 55.97709 37.42130 647 ft 0 kts 162°
2026-05-01 13:14 55.97702 37.42148 647 ft 4 kts 123°
2026-05-01 13:15 55.97697 37.42239 646 ft 11 kts 85°
2026-05-01 13:15 55.97719 37.42408 650 ft 15 kts 75°
2026-05-01 13:15 55.97746 37.42587 645 ft 15 kts 76°
2026-05-01 13:15 55.97772 37.42766 647 ft 15 kts 75°
2026-05-01 13:16 55.97798 37.42945 646 ft 15 kts 75°
2026-05-01 13:16 55.97825 37.43124 648 ft 15 kts 75°
2026-05-01 13:16 55.97853 37.43303 651 ft 15 kts 75°
2026-05-01 13:17 55.97933 37.43839 648 ft 15 kts 75°
2026-05-01 13:17 55.97947 37.43936 646 ft 4 kts 76°
2026-05-01 13:18 55.97918 37.44023 648 ft 5 kts 148°
2026-05-01 13:18 55.97887 37.44048 648 ft 6 kts 160°
2026-05-01 13:18 55.97830 37.44077 647 ft 7 kts 171°
2026-05-01 13:18 55.97789 37.44046 646 ft 7 kts 230°
2026-05-01 13:19 55.97777 37.43990 651 ft 0 kts 255°
2026-05-01 13:19 55.97696 37.43457 646 ft 82 kts 255°
2026-05-01 13:20 55.97481 37.42022 644 ft 151 kts 255°
2026-05-01 13:20 55.97185 37.39934 743 ft 190 kts 257°
2026-05-01 13:20 55.96789 37.37666 1302 ft 194 kts 248°
2026-05-01 13:21 55.95267 37.33816 2787 ft 186 kts 235°
2026-05-01 13:21 55.94512 37.31970 3379 ft 184 kts 237°
2026-05-01 13:21 55.93760 37.30075 3756 ft 194 kts 238°
2026-05-01 13:21 55.92962 37.27985 3949 ft 214 kts 238°
2026-05-01 13:22 55.92080 37.25678 4148 ft 236 kts 237°
2026-05-01 13:22 55.91131 37.23219 4663 ft 245 kts 237°
2026-05-01 13:22 55.89964 37.20990 5148 ft 253 kts 211°
2026-05-01 13:22 55.88254 37.20207 5730 ft 261 kts 176°
2026-05-01 13:23 55.86539 37.21263 6391 ft 264 kts 144°
2026-05-01 13:23 55.85125 37.23295 6908 ft 267 kts 136°
2026-05-01 13:23 55.84061 37.26001 6987 ft 272 kts 105°
2026-05-01 13:23 55.84018 37.29336 7041 ft 269 kts 69°
2026-05-01 13:24 55.84906 37.32254 7560 ft 271 kts 51°
2026-05-01 13:24 55.86070 37.34852 8206 ft 273 kts 49°
2026-05-01 13:24 55.87274 37.37439 8853 ft 272 kts 48°
2026-05-01 13:25 55.89737 37.42710 9003 ft 277 kts 48°
2026-05-01 13:25 55.90958 37.45347 8994 ft 274 kts 49°
2026-05-01 13:25 55.92165 37.47970 9001 ft 273 kts 49°
2026-05-01 13:25 55.93365 37.50586 9023 ft 273 kts 49°
2026-05-01 13:26 55.94594 37.53175 9048 ft 274 kts 44°
2026-05-01 13:26 55.95967 37.55540 9619 ft 273 kts 41°
2026-05-01 13:26 55.97375 37.57840 10041 ft 277 kts 40°
2026-05-01 13:26 55.98809 37.60184 9987 ft 279 kts 41°
2026-05-01 13:27 56.00229 37.62530 9988 ft 277 kts 41°
2026-05-01 13:27 56.01630 37.64865 9982 ft 275 kts 41°
2026-05-01 13:27 56.04409 37.69528 9989 ft 273 kts 41°
2026-05-01 13:28 56.07151 37.74162 9992 ft 272 kts 41°
2026-05-01 13:28 56.08543 37.76517 9994 ft 272 kts 41°
2026-05-01 13:29 56.11222 37.81351 9992 ft 274 kts 45°
2026-05-01 13:29 56.13893 37.86200 9971 ft 269 kts 31°
2026-05-01 13:30 56.21596 37.88183 10840 ft 321 kts
2026-05-01 13:31 56.26318 37.88895 11710 ft 349 kts
2026-05-01 13:31 56.33633 37.89890 14464 ft 356 kts
2026-05-01 13:32 56.38631 37.90540 16097 ft 363 kts
2026-05-01 13:33 56.46306 37.91575 18550 ft 373 kts
2026-05-01 13:33 56.51537 37.92288 19907 ft 380 kts
2026-05-01 13:34 56.56866 37.93015 21272 ft 387 kts
2026-05-01 13:34 56.62277 37.93754 22644 ft 393 kts
2026-05-01 13:35 56.67692 37.94851 23723 ft 395 kts 19°
2026-05-01 13:35 56.70196 37.96938 24165 ft 398 kts 32°
2026-05-01 13:35 56.74183 38.03379 25532 ft 395 kts 43°
2026-05-01 13:36 56.76111 38.06949 26124 ft 395 kts 43°
2026-05-01 13:36 56.78050 38.10517 26649 ft 396 kts 43°
2026-05-01 13:36 56.81968 38.17640 27731 ft 398 kts 42°
2026-05-01 13:37 56.83937 38.21197 28268 ft 399 kts 42°
2026-05-01 13:37 56.85913 38.24767 28761 ft 400 kts 42°
2026-05-01 13:37 56.87909 38.28316 29215 ft 401 kts 40°
2026-05-01 13:37 56.89998 38.31708 29644 ft 401 kts 38°
2026-05-01 13:38 56.94276 38.38295 30409 ft 402 kts 38°
2026-05-01 13:38 56.96424 38.41594 30670 ft 405 kts 38°
2026-05-01 13:38 56.98583 38.44934 30909 ft 407 kts 38°
2026-05-01 13:39 57.00745 38.48302 31182 ft 408 kts 38°
2026-05-01 13:39 57.02910 38.51696 31451 ft 410 kts 38°
2026-05-01 13:39 57.05077 38.55105 31701 ft 411 kts 38°
2026-05-01 13:39 57.07230 38.58503 31927 ft 414 kts 38°
2026-05-01 13:40 57.09413 38.61956 32147 ft 416 kts 38°
2026-05-01 13:40 57.11614 38.65443 32429 ft 416 kts 38°
2026-05-01 13:40 57.13809 38.68927 32678 ft 418 kts 39°
2026-05-01 13:40 57.16014 38.72432 32913 ft 419 kts 39°
2026-05-01 13:41 57.18222 38.75947 33162 ft 420 kts 39°
2026-05-01 13:41 57.20437 38.79479 33418 ft 421 kts 39°
2026-05-01 13:41 57.22652 38.83016 33647 ft 422 kts 39°
2026-05-01 13:41 57.24871 38.86566 33880 ft 423 kts 39°
2026-05-01 13:42 57.27101 38.90137 34114 ft 424 kts 39°
2026-05-01 13:42 57.29336 38.93725 34303 ft 426 kts 39°
2026-05-01 13:42 57.31574 38.97324 34453 ft 427 kts 39°
2026-05-01 13:42 57.33817 39.00936 34646 ft 428 kts 39°
2026-05-01 13:43 57.36071 39.04572 34811 ft 430 kts 39°
2026-05-01 13:43 57.38330 39.08222 34990 ft 431 kts 39°
2026-05-01 13:43 57.40592 39.11884 35077 ft 434 kts 39°
2026-05-01 13:44 57.45150 39.19279 35150 ft 434 kts 39°
2026-05-01 13:44 57.49646 39.26598 35174 ft 431 kts 39°
2026-05-01 13:45 57.54164 39.33965 35169 ft 430 kts 39°
2026-05-01 13:45 57.58665 39.41323 35168 ft 431 kts 39°
2026-05-01 13:46 57.63166 39.48710 35170 ft 431 kts 39°
2026-05-01 13:46 57.67662 39.56115 35168 ft 432 kts 39°
2026-05-01 13:47 57.72167 39.63561 35179 ft 432 kts 39°
2026-05-01 13:47 57.76675 39.71039 35172 ft 434 kts 39°
2026-05-01 13:48 57.81201 39.78571 35165 ft 435 kts 39°
2026-05-01 13:48 57.85716 39.86110 35167 ft 435 kts 39°
2026-05-01 13:49 57.90209 39.93660 35167 ft 435 kts 40°
2026-05-01 13:49 57.94704 40.01278 35172 ft 435 kts 40°
2026-05-01 13:50 57.99205 40.08932 35159 ft 435 kts 40°
2026-05-01 13:50 58.03702 40.16605 35169 ft 435 kts 40°
2026-05-01 13:51 58.08185 40.24277 35164 ft 435 kts 40°
2026-05-01 13:51 58.12669 40.31977 35166 ft 435 kts 40°
2026-05-01 13:52 58.17144 40.39686 35162 ft 435 kts 40°
2026-05-01 13:52 58.21635 40.47376 35163 ft 434 kts 39°
2026-05-01 13:53 58.25861 40.54598 35164 ft 434 kts 40°
2026-05-01 13:53 58.32577 40.66142 35163 ft 434 kts 40°
2026-05-01 13:54 58.37023 40.73826 35175 ft 434 kts 40°
2026-05-01 13:54 58.41494 40.81581 35163 ft 435 kts 40°
2026-05-01 13:55 58.45974 40.89380 35155 ft 435 kts 40°
2026-05-01 13:55 58.50451 40.97202 35154 ft 435 kts 40°
2026-05-01 13:56 58.54822 41.04865 35157 ft 435 kts 40°
2026-05-01 13:56 58.59271 41.12694 35155 ft 436 kts 40°
2026-05-01 13:57 58.62982 41.19246 35157 ft 436 kts 40°
2026-05-01 13:57 58.68173 41.28445 35153 ft 438 kts 40°
2026-05-01 13:58 58.72650 41.36408 35150 ft 438 kts 40°
2026-05-01 13:58 58.77149 41.44323 35153 ft 437 kts 37°
2026-05-01 13:59 58.82000 41.51332 35167 ft 436 kts 34°
2026-05-01 13:59 58.86630 41.57851 35159 ft 437 kts 34°
2026-05-01 14:00 58.91542 41.64829 35149 ft 438 kts 34°
2026-05-01 14:00 58.96447 41.71853 35145 ft 439 kts 34°
2026-05-01 14:01 59.01357 41.78918 35145 ft 439 kts 34°
2026-05-01 14:01 59.06255 41.85990 35149 ft 439 kts 34°
2026-05-01 14:02 59.10318 41.91877 35134 ft 438 kts 34°
2026-05-01 14:02 59.15980 42.00108 35138 ft 435 kts 34°
2026-05-01 14:03 59.20030 42.06017 35131 ft 434 kts 34°
2026-05-01 14:03 59.24854 42.13078 35132 ft 432 kts 34°
2026-05-01 14:04 59.29651 42.20127 35148 ft 431 kts 34°
2026-05-01 14:04 59.34417 42.27150 35138 ft 432 kts 34°
2026-05-01 14:05 59.39096 42.34634 35128 ft 436 kts 41°
2026-05-01 14:05 59.43221 42.43443 35132 ft 439 kts 45°
2026-05-01 14:06 59.47300 42.52392 35125 ft 440 kts 44°
2026-05-01 14:06 59.51395 42.61353 35139 ft 441 kts 44°
2026-05-01 14:07 59.55506 42.70357 35131 ft 442 kts 44°
2026-05-01 14:08 59.61635 42.83846 35128 ft 443 kts 44°
2026-05-01 14:08 59.65739 42.92925 35115 ft 443 kts 45°
2026-05-01 14:09 59.69819 43.01986 35130 ft 443 kts 45°
2026-05-01 14:09 59.73916 43.11117 35115 ft 443 kts 45°
2026-05-01 14:10 59.78009 43.20269 35117 ft 444 kts 45°
2026-05-01 14:10 59.82102 43.29450 35119 ft 444 kts 45°
2026-05-01 14:11 59.86195 43.38667 35114 ft 444 kts 45°
2026-05-01 14:11 59.92324 43.52536 35130 ft 445 kts 45°
2026-05-01 14:12 59.96222 43.62097 35115 ft 450 kts 51°
2026-05-01 14:12 59.99693 43.72509 35116 ft 451 kts 52°
2026-05-01 14:13 60.03159 43.82997 35105 ft 453 kts 52°
2026-05-01 14:13 60.06641 43.93507 35105 ft 453 kts 52°
2026-05-01 14:14 60.10129 44.04046 35114 ft 453 kts 52°
2026-05-01 14:14 60.13615 44.14612 35121 ft 456 kts 53°
2026-05-01 14:15 60.17117 44.25277 35109 ft 458 kts 53°
2026-05-01 14:15 60.20623 44.36009 35107 ft 460 kts 53°
2026-05-01 14:16 60.24130 44.46794 35098 ft 461 kts 53°
2026-05-01 14:16 60.27638 44.57634 35099 ft 462 kts 53°
2026-05-01 14:17 60.31135 44.68491 35096 ft 461 kts 53°
2026-05-01 14:17 60.34621 44.79363 35092 ft 461 kts 53°
2026-05-01 14:18 60.38093 44.90241 35090 ft 460 kts 53°
2026-05-01 14:18 60.40968 44.99287 35091 ft 459 kts 53°
2026-05-01 14:19 60.44971 45.11942 35105 ft 459 kts 54°
2026-05-01 14:19 60.48432 45.22931 35093 ft 460 kts 54°
2026-05-01 14:20 60.53230 45.39811 35087 ft 464 kts 58°
2026-05-01 14:21 60.56227 45.51418 35084 ft 465 kts 58°
2026-05-01 14:21 60.59236 45.63063 35088 ft 465 kts 58°
2026-05-01 14:22 60.63761 45.80575 35090 ft 467 kts 58°
2026-05-01 14:22 60.66779 45.92322 35081 ft 467 kts 59°
2026-05-01 14:23 60.69785 46.04087 35081 ft 468 kts 59°
2026-05-01 14:23 60.72786 46.15901 35077 ft 468 kts 59°
2026-05-01 14:24 60.75776 46.27719 35082 ft 468 kts 59°
2026-05-01 14:24 60.78591 46.39790 35086 ft 471 kts 62°
2026-05-01 14:25 60.81203 46.52003 35079 ft 472 kts 63°
2026-05-01 14:25 60.83837 46.64429 35074 ft 472 kts 63°
2026-05-01 14:26 60.87764 46.82906 35072 ft 473 kts 63°
2026-05-01 14:27 60.90388 46.95297 35099 ft 473 kts 63°
2026-05-01 14:27 60.93014 47.07778 35068 ft 476 kts 63°
2026-05-01 14:28 60.96947 47.26619 35071 ft 479 kts 64°
2026-05-01 14:28 60.99554 47.39206 35068 ft 481 kts 64°
2026-05-01 14:29 61.02186 47.51995 35066 ft 482 kts 64°
2026-05-01 14:30 61.07369 47.77410 35061 ft 483 kts 64°
2026-05-01 14:31 61.11250 47.96653 35062 ft 483 kts 64°
2026-05-01 14:31 61.13821 48.09491 35059 ft 483 kts 64°
2026-05-01 14:32 61.16389 48.22333 35054 ft 483 kts 64°
2026-05-01 14:32 61.18960 48.35200 35057 ft 483 kts 65°
2026-05-01 14:33 61.21520 48.48104 35057 ft 484 kts 65°
2026-05-01 14:33 61.24068 48.61040 35054 ft 485 kts 65°
2026-05-01 14:34 61.26605 48.74016 35048 ft 485 kts 65°
2026-05-01 14:34 61.29132 48.87020 35048 ft 485 kts 65°
2026-05-01 14:35 61.31638 48.99996 35055 ft 486 kts 65°
2026-05-01 14:35 61.34150 49.13090 35049 ft 487 kts 65°
2026-05-01 14:36 61.36657 49.26247 35045 ft 489 kts 66°
2026-05-01 14:36 61.39162 49.39467 35045 ft 491 kts 66°
2026-05-01 14:37 61.41636 49.52792 35044 ft 493 kts 67°
2026-05-01 14:37 61.44051 49.66213 35046 ft 494 kts 67°
2026-05-01 14:38 61.46459 49.79694 35022 ft 495 kts 67°
2026-05-01 14:38 61.48865 49.93209 35040 ft 495 kts 68°
2026-05-01 14:39 61.51262 50.06740 35036 ft 495 kts 68°
2026-05-01 14:39 61.53642 50.20276 35019 ft 495 kts 68°
2026-05-01 14:40 61.55996 50.33767 35024 ft 495 kts 68°
2026-05-01 14:40 61.58353 50.47369 35025 ft 495 kts 68°
2026-05-01 14:41 61.60695 50.60984 35026 ft 496 kts 68°
2026-05-01 14:41 61.63028 50.74633 35018 ft 496 kts 68°
2026-05-01 14:42 61.65526 50.88137 35017 ft 494 kts 62°
2026-05-01 14:42 61.68736 51.00915 35022 ft 494 kts 59°
2026-05-01 14:43 61.71990 51.13686 35025 ft 494 kts 60°
2026-05-01 14:43 61.75191 51.26520 35020 ft 494 kts 60°
2026-05-01 14:44 61.78348 51.39347 35021 ft 494 kts 60°
2026-05-01 14:44 61.83091 51.58732 35027 ft 495 kts 61°
2026-05-01 14:45 61.87278 51.76033 35021 ft 496 kts 61°
2026-05-01 14:46 61.90407 51.89096 35021 ft 497 kts 62°
2026-05-01 14:46 61.95096 52.08799 35028 ft 499 kts 62°
2026-05-01 14:47 61.98211 52.21984 35023 ft 500 kts 62°
2026-05-01 14:48 62.02867 52.41931 35027 ft 502 kts 62°
2026-05-01 14:48 62.07487 52.61922 35022 ft 503 kts 63°
2026-05-01 14:49 62.13631 52.88777 35033 ft 504 kts 63°
2026-05-01 14:50 62.19732 53.15786 35034 ft 504 kts 63°
2026-05-01 14:51 62.24277 53.36125 35034 ft 504 kts 63°
2026-05-01 14:52 62.28797 53.56548 35033 ft 505 kts 64°
2026-05-01 14:53 62.33275 53.76980 35030 ft 506 kts 64°
2026-05-01 14:53 62.36266 53.90722 35028 ft 507 kts 64°
2026-05-01 14:54 62.39245 54.04488 35026 ft 507 kts 64°
2026-05-01 14:54 62.42220 54.18302 35019 ft 508 kts 64°
2026-05-01 14:55 62.45187 54.32168 35022 ft 509 kts 65°
2026-05-01 14:55 62.48140 54.46066 35022 ft 509 kts 65°
2026-05-01 14:56 62.51084 54.60014 35024 ft 509 kts 65°
2026-05-01 14:56 62.54009 54.73967 35021 ft 509 kts 65°
2026-05-01 14:57 62.56929 54.87985 35023 ft 510 kts 65°
2026-05-01 14:57 62.61279 55.09058 35020 ft 510 kts 65°
2026-05-01 14:58 62.64166 55.23149 35023 ft 510 kts 66°
2026-05-01 14:58 62.67026 55.37178 35021 ft 510 kts 66°
2026-05-01 14:59 62.69908 55.51290 35017 ft 511 kts 66°
2026-05-01 14:59 62.72784 55.65438 35020 ft 511 kts 66°
2026-05-01 15:00 62.77073 55.86756 35016 ft 512 kts 66°
2026-05-01 15:01 62.79913 56.01004 35016 ft 512 kts 66°
2026-05-01 15:01 62.82745 56.15307 35010 ft 512 kts 67°
2026-05-01 15:02 62.85565 56.29659 35011 ft 513 kts 67°
2026-05-01 15:02 62.88371 56.44043 34992 ft 513 kts 68°
2026-05-01 15:03 62.91150 56.58384 35010 ft 515 kts 68°
2026-05-01 15:03 62.93939 56.72876 35016 ft 516 kts 68°
2026-05-01 15:04 62.96724 56.87455 35010 ft 518 kts 68°
2026-05-01 15:04 62.99497 57.02086 35016 ft 519 kts 68°
2026-05-01 15:05 63.02268 57.16814 35014 ft 520 kts 69°
2026-05-01 15:05 63.05024 57.31563 35013 ft 521 kts 69°
2026-05-01 15:06 63.07765 57.46350 35014 ft 520 kts 69°
2026-05-01 15:06 63.10488 57.61145 35013 ft 520 kts 69°
2026-05-01 15:07 63.13190 57.75937 35016 ft 519 kts 69°
2026-05-01 15:07 63.15874 57.90750 35011 ft 518 kts 69°
2026-05-01 15:08 63.18524 58.05480 35011 ft 518 kts 69°
2026-05-01 15:08 63.21171 58.20308 35007 ft 518 kts 70°
2026-05-01 15:09 63.23809 58.35200 35017 ft 518 kts 70°
2026-05-01 15:09 63.26435 58.50125 35017 ft 519 kts 70°
2026-05-01 15:10 63.29049 58.65111 35018 ft 520 kts 70°
2026-05-01 15:10 63.32945 58.87652 35017 ft 521 kts 70°
2026-05-01 15:11 63.36801 59.10221 35016 ft 522 kts 71°
2026-05-01 15:12 63.39359 59.25347 35018 ft 522 kts 71°
2026-05-01 15:12 63.43169 59.48108 35011 ft 522 kts 71°
2026-05-01 15:14 63.49150 59.86407 35012 ft 521 kts 79°
2026-05-01 15:15 63.54569 60.41364 34999 ft 524 kts 79°
2026-05-01 15:16 63.57677 60.73349 34976 ft 524 kts 81°
2026-05-01 15:18 63.61437 61.13231 34989 ft 522 kts 81°
2026-05-01 15:19 63.64367 61.45188 34998 ft 521 kts 81°
2026-05-01 15:19 63.66514 61.69174 34999 ft 520 kts 82°
2026-05-01 15:20 63.68620 61.93170 34987 ft 521 kts 82°
2026-05-01 15:21 63.70002 62.09201 35004 ft 522 kts 82°
2026-05-01 15:21 63.71373 62.25329 35000 ft 523 kts 82°
2026-05-01 15:22 63.73392 62.49495 34998 ft 525 kts 83°
2026-05-01 15:22 63.74723 62.65705 34979 ft 525 kts 83°
2026-05-01 15:23 63.76037 62.81950 34994 ft 526 kts 83°
2026-05-01 15:23 63.77335 62.98247 34995 ft 527 kts 83°
2026-05-01 15:24 63.78617 63.14588 34996 ft 528 kts 83°
2026-05-01 15:24 63.79881 63.30943 34994 ft 528 kts 83°
2026-05-01 15:25 63.81127 63.47323 34932 ft 528 kts 84°
2026-05-01 15:25 63.82353 63.63689 34984 ft 526 kts 84°
2026-05-01 15:26 63.83555 63.80021 35002 ft 527 kts 84°
2026-05-01 15:26 63.84747 63.96462 35008 ft 527 kts 84°
2026-05-01 15:27 63.85909 64.12767 34997 ft 528 kts 85°
2026-05-01 15:28 63.87633 64.37424 34992 ft 528 kts 85°
2026-05-01 15:28 63.88769 64.53886 34995 ft 528 kts 85°
2026-05-01 15:29 63.90479 64.78633 34990 ft 528 kts 85°
2026-05-01 15:30 63.93018 65.11474 34993 ft 532 kts 78°
2026-05-01 15:31 63.98771 65.60253 34993 ft 531 kts 79°
2026-05-01 15:32 64.02513 65.92840 34988 ft 531 kts 79°
2026-05-01 15:34 64.08019 66.41913 34994 ft 533 kts 79°